GW1852 Weather Reports


Display with metric or nautical units.
time (UTC)temp
F
wind
direction
speed
MPH
gust
MPH
rain 1hr
in
rain 24hr
in
rain mn
in
humidity
%
barometer
mb
20260906031532 60 29 0.0 0.0 0.11 0.16 0.16 74 1019.6
20260906030029 63 44 0.0 0.0 0.07 0.12 0.12 70 1019.4
20260906024527 62 38 10.0 18.0 0.00 0.05 0.05 64 1019.4
20260906023030 63 44 12.0 19.0 0.00 0.05 0.05 62 1017.7
20260906021526 64 44 8.0 14.0 0.00 0.05 0.05 60 1017.7
20260906020026 65 48 8.0 14.0 0.00 0.05 0.05 59 1017.8
20260906014527 65 46 8.0 15.0 0.00 0.05 0.05 59 1017.8
20260906013030 66 48 9.0 15.0 0.00 0.05 0.05 58 1017.9
20260906011522 67 54 6.0 12.0 0.00 0.05 0.05 56 1018.0
20260906010022 68 43 8.0 18.0 0.00 0.05 0.05 54 1017.8
20260906004521 68 28 8.0 16.0 0.00 0.05 0.05 54 1018.0
20260906003021 68 11 8.0 18.0 0.00 0.05 0.05 52 1017.8
20260906001521 69 42 10.0 16.0 0.00 0.05 0.05 50 1018.2
20260906000036 70 7 11.0 17.0 0.00 0.05 0.05 50 1018.1
20260905234518 70 25 8.0 13.0 0.00 0.05 0.05 52 1018.0
20260905233017 72 316 6.0 12.0 0.00 0.05 0.05 47 1018.2
20260905231517 72 3 6.0 10.0 0.00 0.05 0.05 47 1018.3
20260905230015 72 330 8.0 11.0 0.00 0.05 0.05 45 1018.3
20260905224515 72 341 5.0 9.0 0.00 0.05 0.05 45 1018.2
20260905223014 72 15 4.0 9.0 0.00 0.05 0.05 45 1018.3
20260905221511 72 313 4.0 8.0 0.00 0.05 0.05 44 1018.4
20260905220013 72 336 4.0 8.0 0.00 0.05 0.05 44 1018.6
20260905214509 71 337 5.0 7.0 0.00 0.05 0.05 45 1018.7
20260905213008 71 6 0.0 0.0 0.00 0.05 0.05 47 1018.7
20260905211506 70 303 0.0 2.0 0.00 0.05 0.05 43 1018.7
20260905210004 70 325 0.0 1.0 0.00 0.05 0.05 46 1018.8
20260905204502 69 292 0.0 0.0 0.00 0.05 0.05 46 1019.0
20260905203059 68 313 0.0 0.0 0.00 0.05 0.05 51 1019.1
20260905201557 68 274 0.0 0.0 0.00 0.05 0.05 58 1019.2
20260905200056 67 221 0.0 0.0 0.00 0.05 0.05 57 1019.3
20260905194607 67 239 0.0 0.0 0.00 0.05 0.05 57 1019.3
20260905193052 67 71 0.0 0.0 0.00 0.05 0.05 58 1019.3
20260905191556 66 310 0.0 0.0 0.00 0.05 0.05 60 1019.6
20260905190046 65 289 0.0 0.0 0.00 0.05 0.05 63 1019.7
20260905184606 65 309 0.0 0.0 0.00 0.05 0.05 63 1019.9
20260905183048 64 295 0.0 0.0 0.00 0.05 0.05 64 1020.0
20260905181550 63 304 0.0 0.0 0.00 0.05 0.05 61 1020.1
20260905180045 63 311 0.0 0.0 0.00 0.05 0.05 63 1020.1
20260905174538 62 279 0.0 0.0 0.00 0.05 0.05 67 1020.2
20260905173035 61 288 0.0 0.0 0.00 0.05 0.05 69 1020.2
20260905171532 60 266 0.0 0.0 0.00 0.05 0.05 73 1020.3
20260905170032 59 252 0.0 0.0 0.00 0.05 0.05 76 1020.3
20260905164531 59 237 0.0 0.0 0.00 0.05 0.05 77 1020.2
20260905163030 60 236 0.0 0.0 0.00 0.05 0.05 79 1020.3
20260905161526 59 355 0.0 0.0 0.00 0.05 0.05 79 1020.0
20260905160028 57 279 0.0 0.0 0.00 0.05 0.05 83 1020.1
20260905154524 57 283 0.0 0.0 0.00 0.05 0.05 83 1020.4
20260905153023 56 28 0.0 1.0 0.00 0.05 0.05 84 1020.1
20260905151525 56 18 0.0 0.0 0.01 0.05 0.05 85 1020.2
20260905150022 55 9 0.0 0.0 0.01 0.05 0.05 85 1020.0
20260905144521 55 18 0.0 2.0 0.01 0.05 0.05 88 1019.7
20260905143020 54 37 0.0 0.0 0.02 0.05 0.05 89 1019.8
20260905141521 53 41 0.0 1.0 0.03 0.04 0.04 87 1019.9
20260905140020 53 40 0.0 1.0 0.04 0.04 0.04 89 1018.9
20260905134516 53 18 0.0 1.0 0.04 0.04 0.04 87 1019.1
20260905133022 53 334 0.0 0.0 0.03 0.03 0.03 84 1020.0
20260905131510 54 302 0.0 0.0 0.01 0.01 0.01 80 1020.6
20260905130011 55 331 0.0 0.0 0.00 0.00 0.00 78 1019.5
20260905124504 55 359 0.0 0.0 0.00 0.00 0.00 79 1018.9
20260905123003 56 9 0.0 0.0 0.00 0.00 0.00 74 1018.5
20260905121501 56 328 0.0 2.0 0.00 0.00 0.00 74 1019.2
20260905120100 56 350 0.0 2.0 0.00 0.00 0.00 75 1018.6
20260905114600 57 312 0.0 0.0 0.00 0.00 0.00 71 1019.2
20260905113057 57 302 0.0 0.0 0.00 0.00 0.00 70 1018.9
20260905111642 56 331 0.0 0.0 0.00 0.00 0.00 72 1018.2
20260905110053 56 314 0.0 0.0 0.00 0.00 0.00 72 1018.3
20260905104559 56 328 0.0 2.0 0.00 0.00 0.00 71 1018.3
20260905103051 56 323 0.0 2.0 0.00 0.00 0.00 72 1017.8
20260905101559 55 330 0.0 0.0 0.00 0.00 0.00 74 1017.7
20260905100051 54 293 0.0 3.0 0.00 0.00 0.00 75 1017.9
20260905094547 54 280 0.0 1.0 0.00 0.00 0.00 76 1017.8
20260905093045 54 309 0.0 3.0 0.00 0.00 0.00 74 1017.5
20260905091542 55 302 0.0 2.0 0.00 0.00 0.00 72 1017.9
20260905090041 55 268 0.0 5.0 0.00 0.00 0.00 72 1018.0
20260905084548 55 287 0.0 3.0 0.00 0.00 0.00 72 1017.3
20260905083039 55 319 0.0 1.0 0.00 0.00 0.00 71 1017.3
20260905081537 55 325 0.0 1.0 0.00 0.00 0.00 69 1017.0
20260905080043 57 34 0.0 0.0 0.00 0.00 0.00 65 1016.6
20260905074538 56 53 0.0 1.0 0.00 0.00 0.00 69 1016.5
20260905073032 56 304 0.0 3.0 0.00 0.00 0.00 67 1017.8
20260905071533 56 290 0.0 0.0 0.00 0.00 0.00 66 1018.2
20260905070027 57 300 0.0 0.0 0.00 0.00 0.00 67 1018.1
20260905064523 57 1 0.0 0.0 0.00 0.00 0.00 62 1017.3
20260905063021 57 338 0.0 0.0 0.00 0.00 0.00 62 1017.1
20260905061525 58 11 0.0 0.0 0.00 0.00 0.00 62 1016.8
20260905060024 59 336 0.0 4.0 0.00 0.00 0.00 61 1017.1
20260905054513 59 334 0.0 0.0 0.00 0.00 0.00 57 1017.2
20260905053012 60 344 0.0 0.0 0.00 0.00 0.00 58 1016.9
20260905051510 61 333 0.0 0.0 0.00 0.00 0.00 57 1016.9
20260905050015 62 6 0.0 0.0 0.00 0.00 0.00 58 1016.5
20260905044511 62 337 0.0 0.0 0.00 0.00 0.00 57 1016.7
20260905043010 62 342 0.0 0.0 0.00 0.00 0.00 57 1016.7
20260905041509 63 4 0.0 0.0 0.00 0.00 0.00 55 1016.5
20260905040009 63 33 0.0 0.0 0.00 0.00 0.00 55 1016.4
20260905034505 63 3 0.0 0.0 0.00 0.00 0.00 57 1016.3
20260905033006 63 20 3.0 5.0 0.00 0.00 0.00 54 1015.7